Location: North Evanston
(42.0634°N, 87.6976°W)
Time: 20:43:26
(UTC+00:00)

Vanguard 3 - Pass Details

Date: 13 May 2026
Orbit: 507 x 3205 km, 33.4° (Epoch: 31 May)

Event Time Altitude Azimuth Distance (km) Brightness Sun altitude
Rises 00:59:18 0° 277° (W) 6,934 13.6 -0.4°
Reaches altitude 10° 01:04:40 10° 271° (W) 5,655 12.8 -1.3°
Maximum altitude 01:18:59 41° 210° (SSW) 2,747 9.9 -3.7°
Drops below altitude 10° 01:27:55 10° 144° (SE) 3,564 9.9 -5.1°
Enters shadow 01:29:28 - 139° (SE) 3,947 10.0 -5.3°
Sets 01:30:31 0° 136° (SE) 4,231 - -5.5°
